Location: Newark
(44.2003°N, 3.2583°E)
Time: 09:44:15
(UTC+00:00)

Explorer 7 - Pass Details

Date: 23 October 2019
Orbit: 485 x 680 km, 50.3° (Epoch: 13 November)

Event Time Altitude Azimuth Distance (km) Brightness Sun altitude
Rises 16:56:00 0° 287° (WNW) 2,607 11.4 -1.8°
Reaches altitude 10° 16:58:45 10° 266° (W) 1,747 11.3 -2.2°
Maximum altitude 17:01:20 17° 225° (SW) 1,392 9.9 -2.7°
Drops below altitude 10° 17:04:00 10° 184° (S) 1,809 9.7 -3.2°
Sets 17:06:55 0° 164° (SSE) 2,742 10.4 -3.7°
